Location: Boston
(42.3580°N, 71.0600°W)
Time: 12:04:07
(UTC-05:00)

Tiangong 2 - Pass Details

Date: 09 October 2017
Orbit: 386 x 390 km, 42.8° (Epoch: 13 December)

Event Time Altitude Azimuth Distance (km) Brightness Sun altitude
Exits shadow 04:59:24 20° 157° (SSE) 981 3.2 -21.2°
Maximum altitude 04:59:40 20° 150° (SSE) 974 3.3 -21.2°
Drops below altitude 10° 05:02:06 10° 100° (E) 1,423 4.9 -20.8°
Sets 05:04:31 0° 83° (E) 2,282 6.6 -20.3°
